CW7911 Weather Reports


Display with metric or nautical units.
time (UTC)temp
F
wind
direction
speed
MPH
gust
MPH
rain 1hr
in
rain 24hr
in
rain mn
in
humidity
%
barometer
mb
20260509231221 43 274 0.0 0.0 0.00 0.32 0.32 95 1012.0
20260509230719 43 274 0.0 0.0 0.00 0.32 0.32 95 1011.9
20260509230215 43 274 0.0 0.0 0.00 0.32 0.32 95 1012.1
20260509225711 43 274 0.0 0.0 0.07 0.32 0.32 95 1012.1
20260509225207 43 274 0.0 0.0 0.07 0.32 0.32 95 1012.0
20260509224702 43 274 0.0 0.0 0.00 0.31 0.31 95 1011.9
20260509224200 43 274 0.0 0.0 0.05 0.31 0.31 95 1012.1
20260509223656 43 274 0.0 0.0 0.05 0.31 0.31 95 1012.1
20260509223148 43 274 0.0 0.0 0.00 0.30 0.30 95 1012.1
20260509222645 43 274 0.0 0.0 0.07 0.30 0.30 95 1012.1
20260509222140 43 274 0.0 0.0 0.07 0.30 0.30 95 1012.0
20260509221636 43 274 0.0 0.0 0.00 0.29 0.29 95 1012.1
20260509221132 43 274 0.0 0.0 0.07 0.29 0.29 95 1012.2
20260509220628 43 274 0.0 0.0 0.07 0.29 0.29 95 1012.3
20260509220124 43 274 0.0 0.0 0.00 0.28 0.28 95 1012.3
20260509215620 43 274 0.0 0.0 0.05 0.28 0.28 95 1012.4
20260509215117 43 274 0.0 0.0 0.17 0.28 0.28 95 1012.3
20260509214614 43 274 0.0 0.0 0.19 0.27 0.27 95 1012.4
20260509214111 43 274 0.0 0.0 0.12 0.25 0.25 95 1012.8
20260509213602 43 274 0.0 0.0 0.05 0.24 0.24 95 1012.4
20260509213058 43 274 0.0 0.0 0.00 0.23 0.23 95 1012.3
20260509212555 43 274 0.0 0.0 0.00 0.23 0.23 95 1012.5
20260509212052 44 274 0.0 0.0 0.00 0.23 0.23 95 1012.2
20260509211548 43 274 0.0 0.0 0.07 0.23 0.23 95 1012.2
20260509211045 43 274 0.0 0.0 0.07 0.23 0.23 95 1011.7
20260509210541 43 274 0.0 0.0 0.00 0.22 0.22 95 1012.1
20260509210037 44 274 0.0 0.0 0.00 0.22 0.22 95 1012.2
20260509205532 44 274 0.0 0.0 0.00 0.22 0.22 95 1012.3
20260509205028 44 274 0.0 0.0 0.00 0.22 0.22 95 1012.3
20260509204524 43 274 0.0 0.0 0.05 0.22 0.22 95 1012.2
20260509204021 43 274 0.0 0.0 0.00 0.21 0.21 95 1012.0
20260509203516 43 274 0.0 0.0 0.07 0.21 0.21 95 1012.1
20260509203015 43 274 0.0 0.0 0.07 0.21 0.21 95 1012.4
20260509202509 44 274 0.0 0.0 0.05 0.20 0.20 95 1012.8
20260509202005 44 274 0.0 0.0 0.12 0.20 0.20 95 1012.7
20260509201500 44 274 0.0 0.0 0.07 0.19 0.19 94 1012.6
20260509200958 44 274 0.0 0.0 0.05 0.18 0.18 94 1012.7
20260509200452 44 274 0.0 0.0 0.07 0.17 0.17 94 1012.7
20260509195949 44 274 0.0 0.0 0.14 0.17 0.17 94 1012.7
20260509195445 44 274 0.0 0.0 0.07 0.16 0.16 94 1012.9
20260509194944 43 274 0.0 0.0 0.05 0.15 0.15 94 1013.1
20260509194440 44 274 0.0 0.0 0.12 0.15 0.15 94 1012.9
20260509193937 44 274 0.0 0.0 0.19 0.14 0.14 94 1013.0
20260509193437 44 274 0.0 0.0 0.17 0.13 0.13 93 1012.9
20260509192933 44 274 0.0 0.0 0.05 0.11 0.11 93 1013.1
20260509192430 44 274 0.0 0.0 0.07 0.10 0.10 93 1013.1
20260509191925 45 274 0.0 0.0 0.12 0.10 0.10 93 1013.0
20260509191420 45 274 0.0 0.0 0.05 0.09 0.09 93 1013.0
20260509190917 45 274 0.0 0.0 0.00 0.08 0.08 93 1013.2
20260509190414 45 274 0.0 0.0 0.07 0.08 0.08 92 1013.4
20260509185912 45 274 0.0 0.0 0.05 0.07 0.07 92 1013.1
20260509185409 45 274 0.0 0.0 0.05 0.07 0.07 92 1013.2
20260509184905 45 274 0.0 1.0 0.07 0.06 0.06 92 1013.2
20260509184402 45 274 0.0 0.0 0.07 0.06 0.06 91 1013.1
20260509183859 45 274 0.0 1.0 0.05 0.05 0.05 90 1013.2
20260509183354 46 274 0.0 0.0 0.05 0.05 0.05 90 1013.2
20260509182850 45 274 0.0 0.0 0.07 0.04 0.04 90 1013.4
20260509182347 46 274 0.0 0.0 0.07 0.04 0.04 89 1013.3
20260509181845 46 274 0.0 0.0 0.07 0.03 0.03 88 1013.0
20260509181342 46 274 0.0 0.0 0.07 0.03 0.03 87 1013.3
20260509180839 46 274 0.0 0.0 0.00 0.02 0.02 86 1013.3
20260509180335 47 274 0.0 0.0 0.05 0.02 0.02 86 1013.2
20260509175832 47 274 0.0 0.0 0.05 0.02 0.02 86 1013.3
20260509175328 47 274 0.0 0.0 0.00 0.01 0.01 86 1013.1
20260509174824 47 274 0.0 0.0 0.00 0.01 0.01 85 1013.2
20260509174320 47 274 0.0 0.0 0.00 0.01 0.01 84 1013.3
20260509173816 47 274 0.0 0.0 0.07 0.01 0.01 84 1013.2
20260509173312 47 274 0.0 0.0 0.07 0.01 0.01 83 1013.1
20260509172808 47 274 0.0 0.0 0.00 0.00 0.00 82 1013.2
20260509172306 48 274 0.0 0.0 0.00 0.00 0.00 81 1013.1
20260509171800 48 274 0.0 0.0 0.00 0.00 0.00 78 1013.4
20260509171251 48 274 0.0 0.0 0.00 0.00 0.00 76 1013.1
20260509170747 49 274 0.0 0.0 0.00 0.00 0.00 73 1013.3
20260509170243 50 274 0.0 0.0 0.00 0.00 0.00 71 1013.3
20260509165742 50 274 0.0 0.0 0.00 0.00 0.00 65 1013.4
20260509165238 51 274 0.0 1.0 0.00 0.00 0.00 64 1013.0
20260509164734 51 274 1.0 1.0 0.00 0.00 0.00 58 1013.1
20260509164229 51 274 0.0 1.0 0.00 0.00 0.00 58 1013.1
20260509163727 51 274 0.0 1.0 0.00 0.00 0.00 56 1013.1
20260509163223 52 274 1.0 2.0 0.00 0.00 0.00 53 1013.0
20260509162721 53 274 0.0 0.0 0.00 0.00 0.00 49 1012.9
20260509162216 53 274 0.0 3.0 0.00 0.00 0.00 47 1013.0
20260509161712 54 274 0.0 2.0 0.00 0.00 0.00 44 1013.0
20260509161209 53 274 0.0 0.0 0.00 0.00 0.00 41 1012.9
20260509160704 54 274 0.0 1.0 0.00 0.00 0.00 40 1012.7
20260509160200 54 274 0.0 0.0 0.00 0.00 0.00 40 1012.6
20260509155656 54 274 0.0 2.0 0.00 0.00 0.00 40 1012.9
20260509155152 55 274 0.0 1.0 0.00 0.00 0.00 37 1012.4
20260509154648 55 274 0.0 0.0 0.00 0.00 0.00 38 1012.4
20260509154146 55 274 0.0 0.0 0.00 0.00 0.00 44 1012.6
20260509153642 54 274 0.0 1.0 0.00 0.00 0.00 46 1012.7
20260509153139 54 274 0.0 0.0 0.00 0.00 0.00 48 1012.6
20260509152634 53 274 0.0 0.0 0.00 0.00 0.00 52 1012.5
20260509152132 52 274 0.0 0.0 0.00 0.00 0.00 51 1012.5
20260509151628 52 274 0.0 0.0 0.00 0.00 0.00 52 1012.5
20260509151126 51 274 0.0 1.0 0.00 0.00 0.00 53 1012.5
20260509150624 51 274 0.0 1.0 0.00 0.00 0.00 55 1012.6
20260509150122 52 274 0.0 0.0 0.00 0.00 0.00 55 1012.6
20260509145617 51 274 0.0 2.0 0.00 0.00 0.00 56 1012.5
20260509145113 50 274 2.0 2.0 0.00 0.00 0.00 56 1012.7
20260509144610 50 274 1.0 1.0 0.00 0.00 0.00 57 1012.7
20260509144107 49 274 1.0 1.0 0.00 0.00 0.00 53 1012.7
20260509143604 50 274 1.0 2.0 0.00 0.00 0.00 54 1012.7
20260509143102 49 274 0.0 1.0 0.00 0.00 0.00 54 1012.5
20260509142556 49 274 0.0 2.0 0.00 0.00 0.00 56 1012.6
20260509142053 49 274 1.0 2.0 0.00 0.00 0.00 56 1012.4
20260509141549 49 274 0.0 0.0 0.00 0.00 0.00 56 1012.8
20260509141046 48 274 0.0 0.0 0.00 0.00 0.00 58 1012.5
20260509140543 49 274 1.0 1.0 0.00 0.00 0.00 56 1012.7
20260509140041 49 274 0.0 1.0 0.00 0.00 0.00 57 1012.8
20260509135538 47 274 0.0 1.0 0.00 0.00 0.00 59 1012.6
20260509135035 47 274 1.0 2.0 0.00 0.00 0.00 61 1012.6
20260509134526 46 274 0.0 0.0 0.00 0.00 0.00 63 1012.6
20260509134024 44 274 0.0 0.0 0.00 0.00 0.00 66 1012.9
20260509133520 44 274 1.0 2.0 0.00 0.00 0.00 67 1012.7
20260509133018 44 274 1.0 3.0 0.00 0.00 0.00 67 1012.8
20260509132517 44 274 2.0 2.0 0.00 0.00 0.00 67 1012.8
20260509132014 44 274 0.0 1.0 0.00 0.00 0.00 66 1013.0
20260509131510 43 274 0.0 0.0 0.00 0.00 0.00 68 1013.1
20260509131007 43 274 0.0 0.0 0.00 0.00 0.00 69 1013.0
20260509130502 45 274 0.0 0.0 0.00 0.00 0.00 68 1013.0
20260509130000 44 274 0.0 0.0 0.00 0.00 0.00 67 1013.3
20260509125456 45 274 0.0 0.0 0.00 0.00 0.00 67 1013.2
20260509124952 43 274 0.0 0.0 0.00 0.00 0.00 72 1013.1
20260509124449 42 274 0.0 0.0 0.00 0.00 0.00 74 1013.2
20260509123947 41 274 0.0 0.0 0.00 0.00 0.00 76 1013.1
20260509123444 42 274 0.0 0.0 0.00 0.00 0.00 75 1013.0
20260509122939 42 274 0.0 0.0 0.00 0.00 0.00 75 1013.2
20260509122437 42 274 0.0 0.0 0.00 0.00 0.00 77 1013.4
20260509121933 41 274 0.0 0.0 0.00 0.00 0.00 78 1013.6
20260509121430 41 274 0.0 0.0 0.00 0.00 0.00 78 1013.4
20260509120928 42 274 0.0 0.0 0.00 0.00 0.00 76 1013.3
20260509120426 40 274 0.0 0.0 0.00 0.00 0.00 80 1013.4
20260509115924 39 274 0.0 0.0 0.00 0.00 0.00 82 1013.4
20260509115421 39 274 0.0 0.0 0.00 0.00 0.00 84 1013.3
20260509114918 39 274 0.0 0.0 0.00 0.00 0.00 86 1013.3
20260509114417 38 274 0.0 0.0 0.00 0.00 0.00 88 1013.6
20260509113916 37 274 0.0 0.0 0.00 0.00 0.00 90 1013.3
20260509113413 37 274 0.0 0.0 0.00 0.00 0.00 92 1013.4
20260509112909 36 274 0.0 0.0 0.00 0.00 0.00 92 1013.3
20260509112407 36 274 0.0 0.0 0.00 0.00 0.00 92 1013.2
20260509111904 35 274 0.0 0.0 0.00 0.00 0.00 93 1013.3
20260509111400 35 274 0.0 0.0 0.00 0.00 0.00 93 1013.4
20260509110858 34 274 0.0 0.0 0.00 0.00 0.00 93 1013.4
20260509110354 34 274 0.0 0.0 0.00 0.00 0.00 94 1013.4
20260509105853 33 274 0.0 0.0 0.00 0.00 0.00 94 1013.1
20260509105350 33 274 0.0 0.0 0.00 0.00 0.00 94 1013.4
20260509104847 32 274 0.0 0.0 0.00 0.00 0.00 94 1013.2
20260509104343 32 274 0.0 0.0 0.00 0.00 0.00 94 1013.2
20260509103841 32 274 0.0 0.0 0.00 0.00 0.00 94 1013.0
20260509103338 32 274 0.0 0.0 0.00 0.00 0.00 94 1013.0
20260509102837 31 274 0.0 0.0 0.00 0.00 0.00 94 1012.9
20260509102334 31 274 0.0 0.0 0.00 0.00 0.00 94 1012.9
20260509101830 31 274 0.0 0.0 0.00 0.00 0.00 94 1012.8
20260509101326 30 274 0.0 0.0 0.00 0.00 0.00 94 1012.8
20260509100824 30 274 0.0 0.0 0.00 0.00 0.00 94 1012.7
20260509100321 29 274 0.0 0.0 0.00 0.00 0.00 94 1012.5
20260509095817 29 274 0.0 0.0 0.00 0.00 0.00 94 1012.4
20260509095315 29 274 0.0 0.0 0.00 0.00 0.00 94 1012.4
20260509094812 29 274 0.0 0.0 0.00 0.00 0.00 94 1012.4
20260509094309 29 274 0.0 0.0 0.00 0.00 0.00 93 1012.2
20260509093806 29 274 0.0 0.0 0.00 0.00 0.00 93 1012.3
20260509093303 29 274 0.0 0.0 0.00 0.00 0.00 93 1012.2
20260509092802 29 274 0.0 0.0 0.00 0.00 0.00 93 1012.0
20260509092259 29 274 0.0 0.0 0.00 0.00 0.00 93 1012.2
20260509091757 29 274 0.0 0.0 0.00 0.00 0.00 93 1012.2
20260509091254 29 274 0.0 0.0 0.00 0.00 0.00 93 1012.0
20260509090751 29 274 0.0 0.0 0.00 0.00 0.00 93 1012.0
20260509090248 29 274 0.0 0.0 0.00 0.00 0.00 93 1012.1
20260509085746 29 274 0.0 0.0 0.00 0.00 0.00 92 1012.2
20260509085243 30 274 0.0 0.0 0.00 0.00 0.00 92 1012.1
20260509084739 30 274 0.0 0.0 0.00 0.00 0.00 92 1011.8
20260509084236 30 274 0.0 0.0 0.00 0.00 0.00 92 1011.8
20260509083734 30 274 0.0 0.0 0.00 0.00 0.00 92 1011.9
20260509083230 30 274 0.0 0.0 0.00 0.00 0.00 92 1012.0
20260509082727 30 274 0.0 0.0 0.00 0.00 0.00 91 1012.3
20260509082224 30 274 0.0 0.0 0.00 0.00 0.00 91 1012.0
20260509081721 31 274 0.0 0.0 0.00 0.00 0.00 91 1012.2
20260509081218 31 274 0.0 0.0 0.00 0.00 0.00 91 1012.2
20260509080716 32 274 0.0 0.0 0.00 0.00 0.00 91 1012.1
20260509080214 32 274 0.0 0.0 0.00 0.00 0.00 91 1012.1
20260509075712 32 274 0.0 0.0 0.00 0.00 0.00 91 1012.1
20260509075209 32 274 0.0 0.0 0.00 0.00 0.00 91 1012.0
20260509074706 32 274 0.0 0.0 0.00 0.00 0.00 91 1012.1
20260509074203 32 274 0.0 0.0 0.00 0.00 0.00 91 1012.0
20260509073659 32 274 0.0 0.0 0.00 0.00 0.00 90 1012.0
20260509073155 32 274 0.0 0.0 0.00 0.00 0.00 90 1012.0
20260509072652 33 274 0.0 0.0 0.00 0.00 0.00 90 1012.0
20260509072149 33 274 0.0 0.0 0.00 0.00 0.00 90 1012.2
20260509071646 33 274 0.0 0.0 0.00 0.00 0.00 91 1012.0
20260509071143 32 274 0.0 0.0 0.00 0.00 0.00 90 1012.0
20260509070640 32 274 0.0 0.0 0.00 0.00 0.00 90 1011.6
20260509070136 32 274 0.0 0.0 0.00 0.00 0.00 90 1012.0
20260509065632 32 274 0.0 0.0 0.00 0.00 0.00 90 1011.8
20260509065128 32 274 0.0 0.0 0.00 0.00 0.00 90 1011.5
20260509064626 32 274 0.0 0.0 0.00 0.00 0.00 89 1011.8
20260509064124 32 274 0.0 0.0 0.00 0.00 0.00 89 1011.8
20260509063620 33 274 0.0 0.0 0.00 0.00 0.00 89 1011.8
20260509063117 33 274 0.0 0.0 0.00 0.00 0.00 88 1011.6
20260509062614 33 274 0.0 0.0 0.00 0.00 0.00 88 1011.5
20260509062111 33 274 0.0 0.0 0.00 0.00 0.00 88 1011.7
20260509061608 33 274 0.0 0.0 0.00 0.00 0.00 87 1011.7
20260509061105 34 274 0.0 0.0 0.00 0.00 0.00 87 1011.6
20260509060603 34 274 0.0 0.0 0.00 0.00 0.00 87 1011.7
20260509060058 34 274 0.0 0.0 0.00 0.00 0.00 86 1011.4
20260509055554 34 274 0.0 0.0 0.00 0.00 0.00 86 1011.4
20260509055050 35 274 0.0 0.0 0.00 0.00 0.00 85 1011.4
20260509054548 34 274 0.0 0.0 0.00 0.00 0.00 85 1011.4
20260509054045 34 274 0.0 0.0 0.00 0.00 0.00 85 1011.3
20260509053543 34 274 0.0 0.0 0.00 0.00 0.00 85 1011.5
20260509053040 34 274 0.0 0.0 0.00 0.00 0.00 85 1011.5
20260509052537 34 274 0.0 0.0 0.00 0.00 0.00 85 1011.4
20260509052030 35 274 0.0 0.0 0.00 0.00 0.00 85 1011.5
20260509051527 35 274 0.0 0.0 0.00 0.00 0.00 84 1011.4
20260509051024 35 274 0.0 0.0 0.00 0.00 0.00 84 1011.5
20260509050520 36 274 0.0 0.0 0.00 0.00 0.00 83 1011.4
20260509050011 36 274 0.0 0.0 0.00 0.00 0.00 83 1011.4
20260509045509 36 274 0.0 0.0 0.00 0.00 0.00 82 1011.2
20260509045006 37 274 0.0 0.0 0.00 0.00 0.00 82 1011.6
20260509044504 37 274 0.0 0.0 0.00 0.00 0.00 82 1011.7
20260509044000 37 274 0.0 0.0 0.00 0.00 0.00 82 1011.6
20260509043456 37 274 0.0 0.0 0.00 0.00 0.00 81 1011.5
20260509042952 37 274 0.0 0.0 0.00 0.00 0.00 81 1011.5
20260509042449 37 274 0.0 0.0 0.00 0.00 0.00 81 1011.3
20260509041945 37 274 0.0 0.0 0.00 0.00 0.00 81 1011.7
20260509041442 37 274 0.0 0.0 0.00 0.00 0.00 80 1011.4
20260509040940 37 274 0.0 0.0 0.00 0.00 0.00 80 1011.2
20260509040438 37 274 0.0 0.0 0.00 0.00 0.00 80 1011.3
20260509035934 37 274 0.0 0.0 0.00 0.00 0.00 80 1010.9
20260509035431 37 274 0.0 0.0 0.00 0.00 0.00 80 1011.2
20260509034928 37 274 0.0 0.0 0.00 0.00 0.00 80 1011.2
20260509034426 37 274 0.0 0.0 0.00 0.00 0.00 80 1011.1
20260509033922 37 274 0.0 0.0 0.00 0.00 0.00 80 1010.9
20260509033419 37 274 0.0 0.0 0.00 0.00 0.00 80 1011.1
20260509032916 37 274 0.0 0.0 0.00 0.00 0.00 79 1010.6
20260509032414 37 274 0.0 1.0 0.00 0.00 0.00 79 1010.7
20260509031911 37 274 0.0 0.0 0.00 0.00 0.00 78 1010.7
20260509031409 37 274 0.0 0.0 0.00 0.00 0.00 78 1010.6
20260509030906 37 274 0.0 0.0 0.00 0.00 0.00 78 1010.6
20260509030404 37 274 0.0 0.0 0.00 0.00 0.00 78 1010.4
20260509025901 37 274 0.0 0.0 0.00 0.00 0.00 77 1010.4
20260509025356 37 274 0.0 0.0 0.00 0.00 0.00 77 1010.3
20260509024851 37 274 0.0 0.0 0.00 0.00 0.00 78 1010.6
20260509024347 37 274 0.0 0.0 0.00 0.00 0.00 78 1010.5
20260509023845 37 274 0.0 0.0 0.00 0.00 0.00 77 1010.5
20260509023342 37 274 0.0 0.0 0.00 0.00 0.00 77 1010.2
20260509022838 37 274 0.0 0.0 0.00 0.00 0.00 77 1010.2
20260509022336 37 274 0.0 0.0 0.00 0.00 0.00 76 1010.4
20260509021832 37 274 0.0 0.0 0.00 0.00 0.00 76 1010.1
20260509021324 37 274 0.0 0.0 0.00 0.00 0.00 76 1010.0
20260509020822 37 274 0.0 0.0 0.00 0.00 0.00 75 1009.9
20260509020320 37 274 0.0 0.0 0.00 0.00 0.00 76 1009.9
20260509015817 37 274 0.0 0.0 0.00 0.00 0.00 75 1009.7
20260509015315 37 274 0.0 0.0 0.00 0.00 0.00 75 1009.6
20260509014811 37 274 0.0 0.0 0.00 0.00 0.00 73 1009.6
20260509014308 37 274 0.0 0.0 0.00 0.00 0.00 73 1009.5
20260509013804 37 274 0.0 0.0 0.00 0.00 0.00 73 1009.4
20260509013300 37 274 0.0 0.0 0.00 0.00 0.00 73 1009.6
20260509012756 37 274 0.0 0.0 0.00 0.00 0.00 71 1009.5
20260509012254 38 274 0.0 0.0 0.00 0.00 0.00 71 1009.2
20260509011751 38 274 0.0 0.0 0.00 0.00 0.00 70 1009.3
20260509011249 38 274 0.0 0.0 0.00 0.00 0.00 68 1009.3
20260509010746 39 274 0.0 0.0 0.00 0.00 0.00 67 1009.0
20260509010242 39 274 0.0 0.0 0.00 0.00 0.00 67 1009.0
20260509005740 39 274 0.0 0.0 0.00 0.00 0.00 66 1008.8
20260509005237 39 274 0.0 0.0 0.00 0.00 0.00 65 1008.9
20260509004732 40 274 0.0 0.0 0.00 0.00 0.00 65 1008.9
20260509004229 40 274 0.0 0.0 0.00 0.00 0.00 64 1008.6
20260509003727 40 274 0.0 0.0 0.00 0.00 0.00 65 1008.6
20260509003225 40 274 0.0 0.0 0.00 0.00 0.00 64 1008.5
20260509002722 41 274 0.0 0.0 0.00 0.00 0.00 63 1008.6
20260509002219 41 274 0.0 0.0 0.00 0.00 0.00 62 1008.3
20260509001711 42 274 0.0 0.0 0.00 0.00 0.00 62 1008.4
20260509001206 42 274 0.0 0.0 0.00 0.00 0.00 60 1008.3
20260509000704 42 274 0.0 0.0 0.00 0.00 0.00 59 1008.3
20260509000156 43 274 0.0 0.0 0.00 0.00 0.00 59 1008.2
20260508235653 43 274 0.0 0.0 0.00 0.00 0.00 57 1008.2
20260508235149 44 274 0.0 0.0 0.00 0.00 0.00 57 1007.9
20260508234646 44 274 0.0 0.0 0.00 0.00 0.00 55 1007.9
20260508234142 44 274 0.0 0.0 0.00 0.00 0.00 55 1008.0
20260508233637 45 274 0.0 0.0 0.00 0.00 0.00 54 1007.9
20260508233134 46 274 0.0 0.0 0.00 0.00 0.00 52 1007.9
20260508232631 47 274 0.0 0.0 0.00 0.00 0.00 53 1007.9
20260508232128 48 274 0.0 0.0 0.00 0.00 0.00 50 1007.8
20260508231625 49 274 0.0 0.0 0.00 0.00 0.00 46 1007.7